| time (UTC) | temp F | wind direction | speed knots | gust knots | rain 1hr in | rain 24hr in | rain mn in | humidity % | barometer mb |
| 20260906204539 | 71 | 145 | 0.0 | 4.3 | 0.00 | 0.41 | 0.38 | 97 | 1009.3 |
| 20260906203111 | 70 | 143 | 0.0 | 7.0 | 0.01 | 0.41 | 0.38 | 97 | 1009.1 |
| 20260906201550 | 68 | 318 | 0.9 | 3.5 | 0.01 | 0.41 | 0.38 | 97 | 1009.2 |
| 20260906200015 | 67 | 318 | 1.7 | 3.5 | 0.02 | 0.41 | 0.38 | 96 | 1009.3 |
| 20260906194547 | 67 | 318 | 2.6 | 4.3 | 0.03 | 0.41 | 0.38 | 96 | 1010.2 |
| 20260906193108 | 67 | 318 | 0.0 | 5.2 | 0.02 | 0.40 | 0.37 | 96 | 1011.1 |
| 20260906191529 | 67 | 315 | 2.6 | 5.2 | 0.02 | 0.40 | 0.37 | 96 | 1011.7 |
| 20260906190029 | 67 | 315 | 1.7 | 3.5 | 0.02 | 0.39 | 0.36 | 96 | 1011.7 |
| 20260906184529 | 67 | 315 | 0.9 | 4.3 | 0.19 | 0.38 | 0.35 | 96 | 1011.7 |
| 20260906183036 | 67 | 290 | 4.3 | 11.3 | 0.34 | 0.38 | 0.35 | 95 | 1012.3 |
| 20260906181529 | 68 | 232 | 2.6 | 8.7 | 0.34 | 0.38 | 0.35 | 95 | 1012.8 |
| 20260906180036 | 67 | 231 | 6.1 | 19.1 | 0.33 | 0.37 | 0.34 | 95 | 1011.7 |
| 20260906174533 | 68 | 220 | 20.0 | 26.9 | 0.14 | 0.18 | 0.15 | 92 | 1011.8 |
| 20260906173022 | 72 | 210 | 8.7 | 20.9 | 0.00 | 0.04 | 0.01 | 93 | 1012.3 |
| 20260906171515 | 73 | 179 | 9.6 | 19.1 | 0.00 | 0.04 | 0.01 | 94 | 1011.7 |
| 20260906170013 | 74 | 173 | 8.7 | 15.6 | 0.00 | 0.04 | 0.01 | 94 | 1011.1 |
| 20260906164523 | 74 | 184 | 7.8 | 13.0 | 0.01 | 0.04 | 0.01 | 95 | 1011.4 |
| 20260906163021 | 74 | 146 | 9.6 | 13.9 | 0.01 | 0.04 | 0.01 | 94 | 1011.4 |
| 20260906161511 | 74 | 180 | 6.1 | 16.5 | 0.01 | 0.04 | 0.01 | 94 | 1011.5 |
| 20260906160009 | 74 | 186 | 7.0 | 13.0 | 0.01 | 0.04 | 0.01 | 94 | 1011.3 |
| 20260906154510 | 73 | 161 | 10.4 | 16.5 | 0.00 | 0.03 | 0.00 | 94 | 1011.3 |
| 20260906153003 | 74 | 194 | 7.0 | 10.4 | 0.00 | 0.03 | 0.00 | 93 | 1011.1 |
| 20260906151559 | 74 | 167 | 4.3 | 8.7 | 0.00 | 0.03 | 0.00 | 94 | 1010.6 |
| 20260906144603 | 73 | 121 | 2.6 | 7.8 | 0.00 | 0.03 | 0.00 | 94 | 1010.1 |
| 20260906143051 | 72 | 122 | 4.3 | 10.4 | 0.00 | 0.03 | 0.00 | 94 | 1010.1 |
| 20260906141548 | 72 | 97 | 1.7 | 7.8 | 0.00 | 0.03 | 0.00 | 95 | 1009.9 |
| 20260906140045 | 71 | 219 | 2.6 | 9.6 | 0.00 | 0.03 | 0.00 | 95 | 1010.7 |
| 20260906134543 | 71 | 83 | 1.7 | 8.7 | 0.00 | 0.03 | 0.00 | 94 | 1009.7 |
| 20260906133043 | 71 | 92 | 0.9 | 6.1 | 0.00 | 0.03 | 0.00 | 94 | 1009.8 |
| 20260906131542 | 71 | 93 | 2.6 | 6.1 | 0.00 | 0.03 | 0.00 | 95 | 1010.2 |
| 20260906130047 | 70 | 50 | 0.0 | 11.3 | 0.00 | 0.03 | 0.00 | 94 | 1010.5 |
| 20260906124540 | 70 | 9 | 3.5 | 7.0 | 0.00 | 0.03 | 0.00 | 94 | 1010.3 |
| 20260906123040 | 70 | 136 | 0.0 | 3.5 | 0.00 | 0.03 | 0.00 | 95 | 1010.6 |
| 20260906121539 | 70 | 136 | 0.0 | 3.5 | 0.00 | 0.03 | 0.00 | 95 | 1010.7 |
| 20260906120047 | 70 | 136 | 1.7 | 3.5 | 0.00 | 0.03 | 0.00 | 95 | 1010.9 |
| 20260906114540 | 70 | 136 | 2.6 | 6.1 | 0.00 | 0.03 | 0.00 | 94 | 1010.9 |
| 20260906113035 | 70 | 67 | 0.0 | 2.6 | 0.00 | 0.03 | 0.00 | 94 | 1010.5 |
| 20260906111534 | 70 | 99 | 1.7 | 4.3 | 0.00 | 0.03 | 0.00 | 94 | 1009.8 |
| 20260906110040 | 70 | 5 | 1.7 | 6.1 | 0.00 | 0.03 | 0.00 | 94 | 1009.5 |
| 20260906104532 | 70 | 5 | 2.6 | 6.1 | 0.00 | 0.04 | 0.00 | 93 | 1009.6 |
| 20260906103032 | 70 | 121 | 0.0 | 7.0 | 0.00 | 0.04 | 0.00 | 94 | 1009.9 |
| 20260906101531 | 70 | 121 | 3.5 | 8.7 | 0.00 | 0.04 | 0.00 | 94 | 1010.0 |
| 20260906100031 | 70 | 140 | 7.8 | 13.0 | 0.00 | 0.04 | 0.00 | 94 | 1009.9 |
| 20260906094540 | 69 | 117 | 5.2 | 9.6 | 0.00 | 0.14 | 0.00 | 94 | 1009.7 |
| 20260906093027 | 69 | 114 | 4.3 | 7.8 | 0.00 | 0.14 | 0.00 | 94 | 1009.9 |
| 20260906091524 | 69 | 107 | 2.6 | 7.0 | 0.00 | 0.14 | 0.00 | 93 | 1010.2 |
| 20260906090026 | 69 | 106 | 2.6 | 6.1 | 0.00 | 0.14 | 0.00 | 93 | 1010.3 |
| 20260906084528 | 69 | 107 | 1.7 | 7.8 | 0.00 | 0.14 | 0.00 | 93 | 1010.4 |
| 20260906083021 | 69 | 94 | 1.7 | 5.2 | 0.00 | 0.14 | 0.00 | 92 | 1010.3 |
| 20260906081539 | 69 | 94 | 0.9 | 6.1 | 0.00 | 0.14 | 0.00 | 92 | 1010.0 |
| 20260906080018 | 70 | 105 | 1.7 | 7.0 | 0.00 | 0.14 | 0.00 | 91 | 1009.8 |
| 20260906074517 | 70 | 113 | 2.6 | 7.0 | 0.00 | 0.14 | 0.00 | 91 | 1009.4 |
| 20260906073017 | 70 | 117 | 2.6 | 7.8 | 0.00 | 0.14 | 0.00 | 91 | 1009.4 |
| 20260906071515 | 70 | 94 | 1.7 | 7.0 | 0.00 | 0.14 | 0.00 | 90 | 1009.5 |
| 20260906070014 | 70 | 94 | 1.7 | 6.1 | 0.00 | 0.14 | 0.00 | 90 | 1009.4 |
| 20260906064512 | 71 | 113 | 1.7 | 7.0 | 0.00 | 0.14 | 0.00 | 89 | 1009.5 |
| 20260906063011 | 71 | 113 | 1.7 | 6.1 | 0.00 | 0.14 | 0.00 | 89 | 1009.6 |
| 20260906061512 | 71 | 118 | 5.2 | 9.6 | 0.00 | 0.14 | 0.00 | 90 | 1009.7 |
| 20260906060006 | 71 | 117 | 0.9 | 6.1 | 0.00 | 0.14 | 0.00 | 90 | 1010.0 |
| 20260906054505 | 71 | 117 | 2.6 | 6.1 | 0.00 | 0.14 | 0.00 | 89 | 1010.0 |
| 20260906053002 | 71 | 117 | 3.5 | 8.7 | 0.00 | 0.14 | 0.00 | 90 | 1009.8 |
| 20260906051501 | 71 | 121 | 1.7 | 6.1 | 0.00 | 0.14 | 0.00 | 90 | 1009.7 |
| 20260906050118 | 72 | 121 | 1.7 | 7.8 | 0.00 | 0.14 | 0.00 | 90 | 1009.6 |
| 20260906044557 | 72 | 116 | 5.2 | 9.6 | 0.00 | 0.15 | 0.14 | 90 | 1009.8 |
| 20260906043058 | 72 | 121 | 8.7 | 12.2 | 0.00 | 0.15 | 0.14 | 89 | 1009.8 |
| 20260906041556 | 72 | 89 | 0.9 | 6.1 | 0.00 | 0.15 | 0.14 | 90 | 1009.0 |
| 20260906040121 | 73 | 83 | 1.7 | 7.0 | 0.00 | 0.15 | 0.14 | 90 | 1008.9 |
| 20260906034603 | 73 | 125 | 0.9 | 7.0 | 0.00 | 0.33 | 0.14 | 89 | 1008.8 |
| 20260906033057 | 73 | 138 | 0.9 | 3.5 | 0.00 | 0.33 | 0.14 | 90 | 1008.6 |
| 20260906031601 | 73 | 138 | 1.7 | 3.5 | 0.00 | 0.33 | 0.14 | 89 | 1008.5 |
| 20260906030054 | 73 | 138 | 3.5 | 5.2 | 0.00 | 0.33 | 0.14 | 89 | 1007.8 |
| 20260906024553 | 74 | 138 | 3.5 | 6.1 | 0.00 | 0.33 | 0.14 | 88 | 1007.9 |
| 20260906023054 | 75 | 192 | 3.5 | 8.7 | 0.00 | 0.33 | 0.14 | 87 | 1008.3 |
| 20260906021602 | 75 | 173 | 9.6 | 14.8 | 0.00 | 0.33 | 0.14 | 87 | 1008.5 |
| 20260906020058 | 75 | 190 | 7.0 | 12.2 | 0.00 | 0.33 | 0.14 | 87 | 1008.4 |
| 20260906014557 | 75 | 146 | 7.8 | 10.4 | 0.00 | 0.36 | 0.14 | 88 | 1008.3 |
| 20260906013051 | 75 | 163 | 4.3 | 10.4 | 0.02 | 0.36 | 0.14 | 88 | 1008.5 |
| 20260906011551 | 75 | 164 | 6.1 | 11.3 | 0.03 | 0.36 | 0.14 | 87 | 1008.6 |
| 20260906010054 | 75 | 121 | 3.5 | 7.8 | 0.03 | 0.36 | 0.14 | 89 | 1009.4 |
| 20260906004554 | 76 | 338 | 0.0 | 2.6 | 0.03 | 0.37 | 0.14 | 87 | 1010.6 |
| 20260906003048 | 77 | 340 | 0.0 | 2.6 | 0.01 | 0.35 | 0.12 | 84 | 1010.6 |
| 20260906001610 | 77 | 340 | 1.7 | 7.0 | 0.00 | 0.34 | 0.11 | 81 | 1011.3 |
| 20260906000055 | 78 | 316 | 3.5 | 8.7 | 0.00 | 0.34 | 0.11 | 79 | 1011.6 |
| 20260905234514 | 79 | 140 | 4.3 | 8.7 | 0.00 | 0.35 | 0.11 | 75 | 1010.4 |
| 20260905233052 | 80 | 123 | 4.3 | 7.8 | 0.00 | 0.35 | 0.11 | 72 | 1010.0 |
| 20260905231524 | 80 | 117 | 3.5 | 6.1 | 0.00 | 0.35 | 0.11 | 72 | 1009.6 |
| 20260905230059 | 81 | 117 | 0.0 | 2.6 | 0.00 | 0.35 | 0.11 | 73 | 1009.9 |
| 20260905224511 | 82 | 117 | 1.7 | 4.3 | 0.00 | 0.35 | 0.11 | 66 | 1009.3 |
| 20260905223029 | 83 | 116 | 3.5 | 8.7 | 0.00 | 0.35 | 0.11 | 63 | 1008.8 |
| 20260905221549 | 85 | 120 | 7.8 | 13.9 | 0.00 | 0.35 | 0.11 | 59 | 1007.9 |
| 20260905220006 | 86 | 114 | 9.6 | 13.9 | 0.00 | 0.35 | 0.11 | 58 | 1007.4 |
| 20260905214540 | 86 | 128 | 8.7 | 14.8 | 0.00 | 0.35 | 0.11 | 59 | 1008.0 |
| 20260905213111 | 86 | 124 | 8.7 | 13.0 | 0.00 | 0.35 | 0.11 | 58 | 1008.3 |
| 20260905211543 | 86 | 133 | 9.6 | 14.8 | 0.00 | 0.35 | 0.11 | 59 | 1008.6 |
| 20260905210018 | 86 | 129 | 9.6 | 14.8 | 0.00 | 0.35 | 0.11 | 59 | 1008.6 |